QTR789A CYVR-OJAI

Flight info

Callsign QTR789A
Flight time N/A
Altitude 17000
Route YWL V349 YQU/N0491F350 J526 YOJ/N0492F360 J526 YHY/N0495F350 DCT ZF J477 CB/M085F370 DCT GELBO DCT 74N036W DCT 7220N/M085F390 DCT 7010N DCT 67N000E/N0492F390 DCT GIPOD DCT INREX DCT PENOR N133 IRLUN/N0493F410 N133 GRUDA N191 SORIX DCT KEWLU DCT HALFI DCT TISTA DCT XIMBA N195 NATEV/N0490F400 DCT PODAN DCT KEKED/N0488F410 DCT PERIT DCT NARKA DCT TIMUR DCT ADORU UG80 EKI UW81 YAYLA UL854 KULAR UT39 TOMBI DCT IDAKU L35 PIKOG L609 KONFO/N0488F370 L609 VOLFO N134 SALAM DCT OSAMA
Aircraft A359/H-SDE2E3GHIJ3J4J5LM1ORWXY/LB1D1

Departure

Time 2026-05-08 02:36
Airport Vancouver International Airport (CYVR)

Arrival

Time N/A
Airport Queen Alia International Airport (OJAI)
Time Latitude Longitude Altitude Speed Heading
2026-05-08 01:49 49.19144 -123.17997 29 ft 0 kts 32°
2026-05-08 02:24 49.19135 -123.18005 28 ft 4 kts 32°
2026-05-08 02:24 49.19114 -123.18030 27 ft 4 kts 54°
2026-05-08 02:24 49.19106 -123.18063 28 ft 4 kts 102°
2026-05-08 02:25 49.19117 -123.18092 27 ft 1 kts 147°
2026-05-08 02:25 49.19121 -123.18096 28 ft 0 kts 147°
2026-05-08 02:29 49.19117 -123.18091 27 ft 2 kts 147°
2026-05-08 02:29 49.19091 -123.18067 27 ft 7 kts 148°
2026-05-08 02:29 49.19029 -123.18048 29 ft 11 kts 183°
2026-05-08 02:29 49.18955 -123.18062 29 ft 11 kts 176°
2026-05-08 02:30 49.18906 -123.17998 29 ft 10 kts 107°
2026-05-08 02:30 49.18891 -123.17889 29 ft 11 kts 99°
2026-05-08 02:30 49.18876 -123.17763 29 ft 13 kts 100°
2026-05-08 02:30 49.18860 -123.17620 29 ft 14 kts 99°
2026-05-08 02:31 49.18843 -123.17462 29 ft 16 kts 99°
2026-05-08 02:31 49.18824 -123.17293 29 ft 17 kts 99°
2026-05-08 02:31 49.18803 -123.17111 29 ft 18 kts 99°
2026-05-08 02:31 49.18782 -123.16917 29 ft 19 kts 100°
2026-05-08 02:32 49.18758 -123.16714 29 ft 20 kts 100°
2026-05-08 02:32 49.18740 -123.16553 29 ft 11 kts 100°
2026-05-08 02:32 49.18726 -123.16431 29 ft 12 kts 100°
2026-05-08 02:32 49.18701 -123.16299 29 ft 14 kts 115°
2026-05-08 02:33 49.18648 -123.16181 29 ft 13 kts 115°
2026-05-08 02:33 49.18628 -123.16105 30 ft 0 kts 115°
2026-05-08 02:33 49.18627 -123.16103 30 ft 1 kts 115°
2026-05-08 02:34 49.18625 -123.16097 30 ft 3 kts 116°
2026-05-08 02:34 49.18593 -123.16046 30 ft 10 kts 152°
2026-05-08 02:34 49.18510 -123.16053 31 ft 14 kts 199°
2026-05-08 02:35 49.18478 -123.16121 30 ft 1 kts 279°
2026-05-08 02:35 49.18505 -123.16367 30 ft 56 kts 279°
2026-05-08 02:35 49.18607 -123.17284 30 ft 117 kts 280°
2026-05-08 02:35 49.18776 -123.18792 31 ft 169 kts 278°
2026-05-08 02:36 49.18955 -123.20617 502 ft 177 kts 276°
2026-05-08 02:36 49.19119 -123.22518 779 ft 188 kts 275°
2026-05-08 02:36 49.19291 -123.24575 1046 ft 203 kts 275°
2026-05-08 02:36 49.19473 -123.26816 1334 ft 221 kts 275°
2026-05-08 02:37 49.19660 -123.29180 1887 ft 224 kts 276°
2026-05-08 02:37 49.19847 -123.31547 2508 ft 225 kts 276°
2026-05-08 02:37 49.20035 -123.33944 3030 ft 229 kts 277°
2026-05-08 02:37 49.20230 -123.36343 3573 ft 231 kts 278°
2026-05-08 02:38 49.20706 -123.38721 4066 ft 233 kts 296°
2026-05-08 02:38 49.21726 -123.40578 4531 ft 234 kts 327°
2026-05-08 02:38 49.23235 -123.41443 5073 ft 233 kts 351°
2026-05-08 02:38 49.24864 -123.41756 5538 ft 238 kts 355°
2026-05-08 02:39 49.26537 -123.41994 5990 ft 244 kts 355°
2026-05-08 02:39 49.28240 -123.42230 6493 ft 248 kts 356°
2026-05-08 02:39 49.29966 -123.42473 6990 ft 251 kts 355°
2026-05-08 02:39 49.31709 -123.42711 7517 ft 253 kts 355°
2026-05-08 02:40 49.33476 -123.42775 8033 ft 255 kts
2026-05-08 02:40 49.35212 -123.42358 8533 ft 258 kts 11°
2026-05-08 02:40 49.36972 -123.41766 9106 ft 260 kts 14°
2026-05-08 02:40 49.38729 -123.41077 9652 ft 263 kts 15°
2026-05-08 02:41 49.40502 -123.40334 10195 ft 265 kts 15°
2026-05-08 02:41 49.42290 -123.39572 10685 ft 268 kts 15°
2026-05-08 02:41 49.43505 -123.39054 11030 ft 269 kts 15°
2026-05-08 02:41 49.45920 -123.38037 11688 ft 273 kts 15°
2026-05-08 02:42 49.47760 -123.37273 12198 ft 275 kts 14°
2026-05-08 02:42 49.48987 -123.36766 12526 ft 277 kts 14°
2026-05-08 02:42 49.50864 -123.35994 13024 ft 280 kts 14°
2026-05-08 02:42 49.52756 -123.35218 13527 ft 283 kts 14°
2026-05-08 02:43 49.54665 -123.34434 14008 ft 286 kts 14°
2026-05-08 02:43 49.56623 -123.33629 14241 ft 297 kts 14°
2026-05-08 02:43 49.59343 -123.32510 14568 ft 313 kts 14°
2026-05-08 02:43 49.61483 -123.31628 14822 ft 324 kts 14°
2026-05-08 02:44 49.63696 -123.30716 15066 ft 335 kts 14°
2026-05-08 02:44 49.65210 -123.30089 15231 ft 342 kts 14°
2026-05-08 02:44 49.67541 -123.29123 15493 ft 353 kts 14°
2026-05-08 02:44 49.69945 -123.28125 15741 ft 364 kts 14°
2026-05-08 02:45 49.72436 -123.27094 15975 ft 375 kts 14°
2026-05-08 02:45 49.74993 -123.26035 16196 ft 386 kts 14°
2026-05-08 02:45 49.78483 -123.24587 16524 ft 399 kts 14°
2026-05-08 02:45 49.81186 -123.23462 16753 ft 409 kts 14°
2026-05-08 02:46 49.83030 -123.22694 16895 ft 415 kts 14°
2026-05-08 02:46 49.85884 -123.21503 17141 ft 424 kts 14°
2026-05-08 02:46 49.88762 -123.20302 17432 ft 431 kts 14°
2026-05-08 02:46 49.91671 -123.19085 17800 ft 436 kts 14°
2026-05-08 02:47 49.94565 -123.17873 18215 ft 439 kts 14°
2026-05-08 02:47 49.97528 -123.16630 18579 ft 443 kts 14°
2026-05-08 02:47 50.00514 -123.15376 18969 ft 445 kts 14°
2026-05-08 02:47 50.03518 -123.14114 19355 ft 448 kts 14°
2026-05-08 02:48 50.06528 -123.12848 19756 ft 450 kts 14°
2026-05-08 02:48 50.09560 -123.11571 20155 ft 452 kts 13°
2026-05-08 02:48 50.12606 -123.10287 20567 ft 455 kts 13°
2026-05-08 02:48 50.15668 -123.08994 20940 ft 457 kts 13°
2026-05-08 02:49 50.18745 -123.07693 21341 ft 460 kts 13°
2026-05-08 02:49 50.21797 -123.06401 21750 ft 462 kts 13°
2026-05-08 02:49 50.24913 -123.05080 22154 ft 464 kts 13°
2026-05-08 02:49 50.28035 -123.03754 22569 ft 467 kts 13°
2026-05-08 02:50 50.31175 -123.02419 22982 ft 469 kts 13°
2026-05-08 02:50 50.34342 -123.01071 23368 ft 472 kts 13°
2026-05-08 02:50 50.37524 -122.99715 23758 ft 475 kts 12°
2026-05-08 02:50 50.40710 -122.98355 24101 ft 476 kts 12°
2026-05-08 02:51 50.43910 -122.96987 24495 ft 478 kts 12°
2026-05-08 02:51 50.47129 -122.95609 24863 ft 479 kts 12°
2026-05-08 02:51 50.50310 -122.94246 25218 ft 481 kts 12°
2026-05-08 02:51 50.53544 -122.92857 25583 ft 483 kts 12°
2026-05-08 02:52 50.56792 -122.91460 25961 ft 485 kts 12°
2026-05-08 02:52 50.60043 -122.90059 26383 ft 484 kts 12°
2026-05-08 02:52 50.63295 -122.88656 26759 ft 486 kts 12°
2026-05-08 02:52 50.66565 -122.87243 27108 ft 487 kts 12°
2026-05-08 02:53 50.69836 -122.85828 27437 ft 489 kts 12°
2026-05-08 02:53 50.73126 -122.84403 27756 ft 491 kts 11°
2026-05-08 02:53 50.76430 -122.82971 28065 ft 494 kts 11°
2026-05-08 02:53 50.79757 -122.81527 28320 ft 496 kts 11°
2026-05-08 02:54 50.83050 -122.80096 28641 ft 498 kts 11°
2026-05-08 02:54 50.86391 -122.78640 28947 ft 499 kts 11°
2026-05-08 02:54 50.89747 -122.77176 29257 ft 501 kts 11°
2026-05-08 02:54 50.93091 -122.75712 29784 ft 497 kts 11°
2026-05-08 02:55 50.96409 -122.74255 30283 ft 493 kts 11°
2026-05-08 02:55 51.03020 -122.71354 30883 ft 493 kts 11°
2026-05-08 02:55 51.06324 -122.69903 31181 ft 492 kts 11°
2026-05-08 02:56 51.09628 -122.68449 31425 ft 493 kts 11°
2026-05-08 02:56 51.12888 -122.67013 31693 ft 493 kts 11°
2026-05-08 02:56 51.16188 -122.65556 32010 ft 492 kts 10°
2026-05-08 02:56 51.19483 -122.64099 32283 ft 491 kts 10°
2026-05-08 02:57 51.22766 -122.62646 32586 ft 490 kts 10°
2026-05-08 02:57 51.26041 -122.61192 32913 ft 488 kts 10°
2026-05-08 02:57 51.29309 -122.59741 33183 ft 487 kts 10°
2026-05-08 02:57 51.32582 -122.58285 33407 ft 487 kts 10°
2026-05-08 02:58 51.35846 -122.56832 33640 ft 487 kts 10°
2026-05-08 02:58 51.39095 -122.55383 33880 ft 486 kts 10°
2026-05-08 02:58 51.42361 -122.53924 34106 ft 486 kts 10°
2026-05-08 02:58 51.45616 -122.52468 34276 ft 486 kts
2026-05-08 02:59 51.48870 -122.51011 34409 ft 486 kts 10°
2026-05-08 02:59 51.52128 -122.49550 34610 ft 485 kts
2026-05-08 02:59 51.55375 -122.48090 34866 ft 483 kts
2026-05-08 02:59 51.58564 -122.46653 34994 ft 484 kts
2026-05-08 03:00 51.61818 -122.45187 35001 ft 486 kts
2026-05-08 03:00 51.68327 -122.42250 35012 ft 486 kts
2026-05-08 03:01 51.74835 -122.39302 35005 ft 486 kts
2026-05-08 03:01 51.81345 -122.36342 35018 ft 486 kts
2026-05-08 03:02 51.87811 -122.33394 35008 ft 486 kts
2026-05-08 03:02 51.94285 -122.30432 35021 ft 482 kts
2026-05-08 03:03 52.00737 -122.27477 35015 ft 481 kts
2026-05-08 03:03 52.07192 -122.24508 35001 ft 482 kts
2026-05-08 03:04 52.13656 -122.21527 34996 ft 483 kts
2026-05-08 03:04 52.20077 -122.18554 35009 ft 483 kts
2026-05-08 03:05 52.26308 -122.14247 34985 ft 492 kts 22°
2026-05-08 03:05 52.32250 -122.08633 35000 ft 494 kts 24°
2026-05-08 03:06 52.38126 -122.02757 35002 ft 495 kts 25°
2026-05-08 03:06 52.43972 -121.96898 35012 ft 497 kts 25°
2026-05-08 03:07 52.49881 -121.91003 35015 ft 496 kts 24°
2026-05-08 03:07 52.55754 -121.85143 35015 ft 494 kts 24°
2026-05-08 03:08 52.61637 -121.79261 35014 ft 494 kts 24°
2026-05-08 03:08 52.67512 -121.73370 35014 ft 494 kts 24°
2026-05-08 03:09 52.73334 -121.67510 35031 ft 494 kts 24°
2026-05-08 03:09 52.79183 -121.61601 35026 ft 491 kts 24°
2026-05-08 03:10 52.85016 -121.55672 35013 ft 493 kts 24°
2026-05-08 03:10 52.90855 -121.49715 35015 ft 493 kts 24°
2026-05-08 03:11 52.96687 -121.43747 35020 ft 493 kts 24°
2026-05-08 03:11 53.02472 -121.37817 35021 ft 492 kts 24°
2026-05-08 03:12 53.08305 -121.31818 35020 ft 493 kts 24°
2026-05-08 03:12 53.14137 -121.25797 35019 ft 494 kts 25°
2026-05-08 03:13 53.19976 -121.19745 35029 ft 494 kts 25°
2026-05-08 03:13 53.25810 -121.13673 35004 ft 494 kts 24°
2026-05-08 03:14 53.31564 -121.07658 35006 ft 490 kts 24°
2026-05-08 03:14 53.37340 -121.01622 35023 ft 490 kts 24°
2026-05-08 03:15 53.43127 -120.95570 35019 ft 489 kts 24°
2026-05-08 03:15 53.48888 -120.89505 35006 ft 490 kts 25°
2026-05-08 03:16 53.54647 -120.83403 35011 ft 488 kts 24°
2026-05-08 03:16 53.60340 -120.77373 35008 ft 486 kts 24°
2026-05-08 03:17 53.66074 -120.71287 35005 ft 488 kts 24°
2026-05-08 03:17 53.71818 -120.65167 35007 ft 489 kts 24°
2026-05-08 03:18 53.77565 -120.59014 35016 ft 489 kts 24°
2026-05-08 03:18 53.83314 -120.52846 35004 ft 488 kts 24°
2026-05-08 03:19 53.88998 -120.46714 35012 ft 487 kts 24°
2026-05-08 03:19 53.94711 -120.40557 35014 ft 488 kts 24°
2026-05-08 03:20 54.00431 -120.34353 35008 ft 487 kts 24°
2026-05-08 03:20 54.06141 -120.28140 35014 ft 488 kts 24°
2026-05-08 03:21 54.11879 -120.21877 35010 ft 489 kts 24°
2026-05-08 03:21 54.17570 -120.15642 35001 ft 489 kts 24°
2026-05-08 03:22 54.23297 -120.09402 34999 ft 489 kts 24°
2026-05-08 03:22 54.29030 -120.03145 35026 ft 489 kts 23°
2026-05-08 03:23 54.34740 -119.96883 34988 ft 486 kts 24°
2026-05-08 03:23 54.40400 -119.90659 34983 ft 486 kts 24°
2026-05-08 03:24 54.46093 -119.84381 34984 ft 486 kts 24°
2026-05-08 03:24 54.51784 -119.78079 34976 ft 487 kts 24°
2026-05-08 03:25 54.57454 -119.71699 34974 ft 487 kts 24°
2026-05-08 03:25 54.63122 -119.65291 34954 ft 486 kts 24°
2026-05-08 03:26 54.68773 -119.58896 34948 ft 486 kts 24°
2026-05-08 03:26 54.74389 -119.52524 34942 ft 486 kts 24°
2026-05-08 03:27 54.80048 -119.46085 34945 ft 486 kts 24°
2026-05-08 03:27 54.85689 -119.39646 34954 ft 484 kts 23°
2026-05-08 03:28 54.91277 -119.33241 34927 ft 485 kts 23°
2026-05-08 03:28 54.96904 -119.26775 34925 ft 485 kts 23°
2026-05-08 03:29 55.02533 -119.20283 34919 ft 485 kts 23°
2026-05-08 03:29 55.08152 -119.13780 34937 ft 485 kts 24°
2026-05-08 03:30 55.16600 -119.04290 34898 ft 471 kts 17°
2026-05-08 03:30 55.22553 -119.00301 34896 ft 457 kts
2026-05-08 03:31 55.28622 -118.97041 34899 ft 456 kts
2026-05-08 03:32 55.37754 -118.92305 34907 ft 456 kts
2026-05-08 03:32 55.43841 -118.89109 34924 ft 456 kts
2026-05-08 03:33 55.49855 -118.85920 34920 ft 453 kts
2026-05-08 03:33 55.55897 -118.82708 34924 ft 453 kts
2026-05-08 03:34 55.62212 -118.79343 34923 ft 454 kts
2026-05-08 03:34 55.68227 -118.76128 34926 ft 454 kts
2026-05-08 03:35 55.74275 -118.72882 34925 ft 455 kts
2026-05-08 03:35 55.80330 -118.69622 34921 ft 455 kts
2026-05-08 03:36 55.86387 -118.66350 34913 ft 455 kts
2026-05-08 03:36 55.92442 -118.63078 34915 ft 454 kts
2026-05-08 03:37 55.98458 -118.59833 34920 ft 455 kts
2026-05-08 03:37 56.04682 -118.56424 34915 ft 456 kts
2026-05-08 03:38 56.10747 -118.53088 34914 ft 456 kts
2026-05-08 03:38 56.16818 -118.49748 34942 ft 456 kts
2026-05-08 03:39 56.22863 -118.46411 34919 ft 453 kts
2026-05-08 03:39 56.28833 -118.43111 34919 ft 452 kts
2026-05-08 03:40 56.34853 -118.39777 34926 ft 453 kts
2026-05-08 03:40 56.40872 -118.36431 34925 ft 453 kts
2026-05-08 03:41 56.46896 -118.33068 34935 ft 453 kts
2026-05-08 03:41 56.52913 -118.29697 34935 ft 453 kts
2026-05-08 03:42 56.58883 -118.26339 34941 ft 451 kts
2026-05-08 03:42 56.64860 -118.22966 34963 ft 450 kts
2026-05-08 03:43 56.70840 -118.19586 34939 ft 450 kts
2026-05-08 03:43 56.76817 -118.16196 34946 ft 450 kts
2026-05-08 03:44 56.82754 -118.12816 34943 ft 450 kts
2026-05-08 03:44 56.88735 -118.09398 34954 ft 450 kts
2026-05-08 03:45 56.94710 -118.05972 34959 ft 449 kts
2026-05-08 03:45 57.00659 -118.02545 34967 ft 448 kts
2026-05-08 03:46 57.06612 -117.99111 34960 ft 449 kts
2026-05-08 03:46 57.12541 -117.95680 34959 ft 450 kts
2026-05-08 03:47 57.18506 -117.92214 34967 ft 450 kts
2026-05-08 03:47 57.24478 -117.88731 34976 ft 450 kts
2026-05-08 03:48 57.30439 -117.85244 35022 ft 450 kts
2026-05-08 03:48 57.36361 -117.81767 34980 ft 449 kts
2026-05-08 03:49 57.42337 -117.78252 34979 ft 451 kts
2026-05-08 03:49 57.48316 -117.74719 34979 ft 452 kts
2026-05-08 03:50 57.54307 -117.71163 34978 ft 452 kts
2026-05-08 03:50 57.59277 -117.68205 34982 ft 451 kts
2026-05-08 03:51 57.65269 -117.64630 34982 ft 452 kts
2026-05-08 03:51 57.72223 -117.60468 34997 ft 453 kts
2026-05-08 03:52 57.78268 -117.56840 34981 ft 458 kts
2026-05-08 03:52 57.83314 -117.53791 34975 ft 458 kts
2026-05-08 03:53 57.89376 -117.50114 34976 ft 458 kts
2026-05-08 03:53 57.95455 -117.46419 34971 ft 458 kts
2026-05-08 03:54 58.01518 -117.42723 34968 ft 458 kts
2026-05-08 03:54 58.07538 -117.39041 35026 ft 458 kts
2026-05-08 03:55 58.13642 -117.35305 34974 ft 464 kts
2026-05-08 03:55 58.19794 -117.31517 34982 ft 465 kts
2026-05-08 03:56 58.25910 -117.27726 34973 ft 465 kts
2026-05-08 03:56 58.32065 -117.23901 34974 ft 465 kts
2026-05-08 03:57 58.38213 -117.20070 34977 ft 465 kts
2026-05-08 03:57 58.44368 -117.16223 34976 ft 466 kts 10°
2026-05-08 03:58 58.50551 -117.12351 34961 ft 470 kts 11°
2026-05-08 03:58 58.53622 -117.10421 35076 ft 470 kts 11°
2026-05-08 03:58 58.56720 -117.08473 35273 ft 468 kts 11°
2026-05-08 03:58 58.59833 -117.06685 35423 ft 466 kts
2026-05-08 03:59 58.62966 -117.05047 35575 ft 466 kts
2026-05-08 03:59 58.66098 -117.03466 35702 ft 466 kts
2026-05-08 03:59 58.69228 -117.01887 35825 ft 466 kts
2026-05-08 03:59 58.72365 -117.00279 35939 ft 467 kts
2026-05-08 04:00 58.75515 -116.98640 35974 ft 470 kts
2026-05-08 04:00 58.81803 -116.95312 35971 ft 474 kts
2026-05-08 04:01 58.88162 -116.91897 36025 ft 473 kts
2026-05-08 04:01 58.94517 -116.88478 36005 ft 475 kts
2026-05-08 04:02 59.00898 -116.85033 36006 ft 476 kts
2026-05-08 04:02 59.07242 -116.81593 36000 ft 477 kts
2026-05-08 04:03 59.13630 -116.78119 36011 ft 476 kts
2026-05-08 04:03 59.23233 -116.72878 36012 ft 479 kts 10°
2026-05-08 04:04 59.29649 -116.69354 36015 ft 479 kts 10°
2026-05-08 04:04 59.36034 -116.65836 36018 ft 480 kts 10°
2026-05-08 04:05 59.42474 -116.62274 36018 ft 481 kts 11°
2026-05-08 04:05 59.48917 -116.58683 36021 ft 481 kts 11°
2026-05-08 04:06 59.55363 -116.55080 36021 ft 483 kts 11°
2026-05-08 04:06 59.61789 -116.51476 36021 ft 483 kts 11°
2026-05-08 04:07 59.68258 -116.47833 36021 ft 483 kts 11°
2026-05-08 04:07 59.74724 -116.44176 36020 ft 483 kts 11°
2026-05-08 04:08 59.81194 -116.40504 36021 ft 483 kts 11°
2026-05-08 04:08 59.87664 -116.36817 36038 ft 484 kts 11°
2026-05-08 04:09 59.94087 -116.33142 36025 ft 484 kts 11°
2026-05-08 04:09 60.00563 -116.29422 36027 ft 484 kts 11°
2026-05-08 04:10 60.07040 -116.25686 36030 ft 484 kts 11°
2026-05-08 04:10 60.13513 -116.21951 36030 ft 484 kts 11°
2026-05-08 04:11 60.19939 -116.18207 36036 ft 485 kts 12°
2026-05-08 04:11 60.26421 -116.14418 36035 ft 486 kts 12°
2026-05-08 04:12 60.32918 -116.10607 36041 ft 486 kts 12°
2026-05-08 04:12 60.39415 -116.06781 36043 ft 486 kts 12°
2026-05-08 04:13 60.45916 -116.02937 36047 ft 486 kts 12°
2026-05-08 04:13 60.52371 -115.99105 36044 ft 486 kts 12°
2026-05-08 04:14 60.58862 -115.95235 36042 ft 487 kts 12°
2026-05-08 04:14 60.65371 -115.91341 36045 ft 488 kts 13°
2026-05-08 04:15 60.71887 -115.87424 36040 ft 489 kts 13°
2026-05-08 04:15 60.78413 -115.83483 36033 ft 489 kts 13°
2026-05-08 04:16 60.84845 -115.79228 36039 ft 491 kts 17°
2026-05-08 04:16 60.91207 -115.74109 36040 ft 492 kts 18°
2026-05-08 04:17 60.97551 -115.68848 36044 ft 492 kts 18°
2026-05-08 04:17 61.03900 -115.63546 36048 ft 492 kts 19°
2026-05-08 04:18 61.10200 -115.58270 36047 ft 492 kts 19°
2026-05-08 04:18 61.16547 -115.52941 36050 ft 492 kts 19°
2026-05-08 04:19 61.22893 -115.47592 36052 ft 492 kts 19°
2026-05-08 04:19 61.29240 -115.42218 36052 ft 492 kts 19°
2026-05-08 04:20 61.35540 -115.36861 36051 ft 492 kts 19°
2026-05-08 04:20 61.41887 -115.31440 36054 ft 493 kts 20°
2026-05-08 04:21 61.48234 -115.25994 36049 ft 494 kts 20°
2026-05-08 04:21 61.54586 -115.20520 36049 ft 494 kts 20°
2026-05-08 04:22 61.60933 -115.15026 36049 ft 494 kts 20°
2026-05-08 04:22 61.67258 -115.09527 36053 ft 494 kts 20°
2026-05-08 04:23 61.73603 -115.03985 36055 ft 494 kts 20°
2026-05-08 04:23 61.79946 -114.98421 36066 ft 494 kts 21°
2026-05-08 04:24 61.86309 -114.92813 36053 ft 495 kts 21°
2026-05-08 04:24 61.92609 -114.87237 36056 ft 495 kts 21°
2026-05-08 04:25 61.98959 -114.81591 36051 ft 495 kts 21°
2026-05-08 04:25 62.05318 -114.75911 36059 ft 495 kts 21°
2026-05-08 04:26 62.11658 -114.70223 36056 ft 495 kts 21°
2026-05-08 04:26 62.17958 -114.64545 36054 ft 495 kts 21°
2026-05-08 04:27 62.24304 -114.58800 36045 ft 495 kts 21°
2026-05-08 04:27 62.30647 -114.53030 36036 ft 495 kts 21°
2026-05-08 04:28 62.36998 -114.47226 36031 ft 495 kts 21°
2026-05-08 04:28 62.43332 -114.41374 36040 ft 496 kts 23°
2026-05-08 04:29 62.49552 -114.34919 36057 ft 496 kts 25°
2026-05-08 04:29 62.55680 -114.28295 36056 ft 496 kts 25°
2026-05-08 04:30 62.61875 -114.21662 36056 ft 495 kts 25°
2026-05-08 04:30 62.68059 -114.15090 36062 ft 495 kts 25°
2026-05-08 04:31 62.74248 -114.08504 36056 ft 495 kts 25°
2026-05-08 04:31 62.80390 -114.01937 36057 ft 495 kts 25°
2026-05-08 04:32 62.86580 -113.95284 36060 ft 495 kts 25°
2026-05-08 04:32 62.92753 -113.88614 36055 ft 495 kts 25°
2026-05-08 04:33 62.98927 -113.81912 36063 ft 494 kts 25°
2026-05-08 04:33 63.05047 -113.75238 36057 ft 494 kts 25°
2026-05-08 04:34 63.11203 -113.68492 36058 ft 494 kts 25°
2026-05-08 04:34 63.17350 -113.61724 36062 ft 494 kts 26°
2026-05-08 04:35 63.23502 -113.54919 36064 ft 494 kts 26°
2026-05-08 04:35 63.29645 -113.48091 36061 ft 494 kts 26°
2026-05-08 04:36 63.35744 -113.41279 36068 ft 493 kts 26°
2026-05-08 04:36 63.41872 -113.34403 36069 ft 493 kts 26°
2026-05-08 04:37 63.48003 -113.27489 36076 ft 493 kts 26°
2026-05-08 04:37 63.54090 -113.20591 36077 ft 493 kts 26°
2026-05-08 04:38 63.60213 -113.13619 36075 ft 493 kts 26°
2026-05-08 04:38 63.66328 -113.06624 36087 ft 493 kts 26°
2026-05-08 04:39 63.72447 -112.99589 36081 ft 493 kts 26°
2026-05-08 04:39 63.78557 -112.92538 36088 ft 493 kts 26°
2026-05-08 04:40 63.84634 -112.85485 36096 ft 495 kts 26°
2026-05-08 04:40 63.90756 -112.78338 36095 ft 495 kts 26°
2026-05-08 04:41 63.96880 -112.71161 36104 ft 495 kts 26°
2026-05-08 04:41 64.03000 -112.63956 36105 ft 495 kts 27°
2026-05-08 04:42 64.09109 -112.56721 36109 ft 495 kts 27°
2026-05-08 04:42 64.15168 -112.49512 36108 ft 494 kts 27°
2026-05-08 04:43 64.21263 -112.42226 36115 ft 494 kts 27°
2026-05-08 04:43 64.27355 -112.34909 36116 ft 495 kts 27°
2026-05-08 04:44 64.33460 -112.27536 36121 ft 495 kts 27°
2026-05-08 04:44 64.39515 -112.20188 36122 ft 495 kts 27°
2026-05-08 04:45 64.45608 -112.12755 36117 ft 495 kts 27°
2026-05-08 04:45 64.51688 -112.05299 36127 ft 494 kts 28°
2026-05-08 04:46 64.57749 -111.97831 36125 ft 493 kts 28°
2026-05-08 04:46 64.63814 -111.90320 36130 ft 493 kts 28°
2026-05-08 04:47 64.69838 -111.82822 36128 ft 495 kts 28°
2026-05-08 04:47 64.75900 -111.75238 36130 ft 495 kts 28°
2026-05-08 04:48 64.81975 -111.67599 36130 ft 495 kts 28°
2026-05-08 04:48 64.88031 -111.59943 36129 ft 493 kts 29°
2026-05-08 04:49 64.94018 -111.52337 36131 ft 492 kts 29°
2026-05-08 04:49 65.00036 -111.44650 36131 ft 492 kts 29°
2026-05-08 04:50 65.06048 -111.36933 36131 ft 492 kts 29°
2026-05-08 04:50 65.12071 -111.29160 36132 ft 493 kts 29°
2026-05-08 04:51 65.18095 -111.21347 36135 ft 493 kts 29°
2026-05-08 04:51 65.24125 -111.13485 36134 ft 493 kts 29°
2026-05-08 04:52 65.30080 -111.05679 36134 ft 491 kts 29°
2026-05-08 04:52 65.36064 -110.97793 36134 ft 491 kts 30°
2026-05-08 04:53 65.42045 -110.89872 36137 ft 491 kts 30°
2026-05-08 04:53 65.47987 -110.81961 36135 ft 491 kts 30°
2026-05-08 04:54 65.53973 -110.73949 36135 ft 493 kts 30°
2026-05-08 04:54 65.59955 -110.65898 36133 ft 493 kts 30°
2026-05-08 04:55 65.65934 -110.57811 36127 ft 491 kts 30°
2026-05-08 04:55 65.71887 -110.49714 36128 ft 490 kts 30°
2026-05-08 04:56 65.77780 -110.41656 36123 ft 490 kts 30°
2026-05-08 04:56 65.83723 -110.33486 36131 ft 490 kts 30°
2026-05-08 04:57 65.89658 -110.25285 36131 ft 490 kts 31°
2026-05-08 04:57 65.95610 -110.17017 36125 ft 492 kts 31°
2026-05-08 04:58 66.01515 -110.08767 36132 ft 490 kts 31°
2026-05-08 04:58 66.07414 -110.00482 36122 ft 488 kts 31°
2026-05-08 04:59 66.13306 -109.92162 36133 ft 487 kts 31°
2026-05-08 04:59 66.19186 -109.83814 36131 ft 487 kts 31°
2026-05-08 05:00 66.25019 -109.75488 36130 ft 487 kts 31°
2026-05-08 05:00 66.30897 -109.67054 36128 ft 487 kts 31°
2026-05-08 05:01 66.36771 -109.58576 36129 ft 489 kts 31°
2026-05-08 05:01 66.42651 -109.50045 36116 ft 487 kts 31°
2026-05-08 05:02 66.48496 -109.41519 36125 ft 486 kts 31°
2026-05-08 05:02 66.54291 -109.33018 36117 ft 486 kts 31°
2026-05-08 05:03 66.60123 -109.24416 36117 ft 486 kts 32°
2026-05-08 05:03 66.65960 -109.15759 36127 ft 486 kts 32°
2026-05-08 05:04 66.71746 -109.07132 36114 ft 486 kts 32°
2026-05-08 05:04 66.77567 -108.98403 36128 ft 487 kts 32°
2026-05-08 05:05 66.83411 -108.89589 36113 ft 490 kts 32°
2026-05-08 05:05 66.89271 -108.80704 36112 ft 490 kts 32°
2026-05-08 05:06 66.95126 -108.71775 36109 ft 490 kts 33°
2026-05-08 05:06 67.00932 -108.62871 36120 ft 490 kts 33°
2026-05-08 05:07 67.06778 -108.53854 36114 ft 490 kts 33°
2026-05-08 05:07 67.12615 -108.44800 36115 ft 490 kts 33°
2026-05-08 05:08 67.18463 -108.35677 36123 ft 494 kts 34°
2026-05-08 05:08 67.24333 -108.26463 36118 ft 499 kts 34°
2026-05-08 05:09 67.30248 -108.17132 36120 ft 498 kts 34°
2026-05-08 05:09 67.36157 -108.07753 36117 ft 498 kts 34°
2026-05-08 05:10 67.45003 -107.93608 36120 ft 498 kts 34°
2026-05-08 05:11 67.50859 -107.84174 36114 ft 498 kts 34°
2026-05-08 05:11 67.56743 -107.74638 36116 ft 498 kts 34°
2026-05-08 05:12 67.62628 -107.65045 36122 ft 499 kts 34°
2026-05-08 05:12 67.68521 -107.55380 36116 ft 499 kts 34°
2026-05-08 05:13 67.74409 -107.45667 36112 ft 499 kts 34°
2026-05-08 05:13 67.80252 -107.35970 36121 ft 499 kts 34°
2026-05-08 05:14 67.86124 -107.26167 36123 ft 499 kts 34°
2026-05-08 05:14 67.91995 -107.16305 36113 ft 499 kts 35°
2026-05-08 05:15 67.97876 -107.06368 36123 ft 502 kts 35°
2026-05-08 05:15 68.03772 -106.96339 36123 ft 504 kts 35°
2026-05-08 05:16 68.09641 -106.86300 36130 ft 504 kts 35°
2026-05-08 05:16 68.15542 -106.76144 36127 ft 504 kts 36°
2026-05-08 05:17 68.21443 -106.65926 36131 ft 504 kts 36°
2026-05-08 05:17 68.27340 -106.55647 36131 ft 504 kts 36°
2026-05-08 05:18 68.33180 -106.45407 36126 ft 504 kts 36°
2026-05-08 05:18 68.39060 -106.35030 36129 ft 504 kts 36°
2026-05-08 05:19 68.44949 -106.24569 36129 ft 506 kts 36°
2026-05-08 05:19 68.50844 -106.14035 36130 ft 507 kts 36°
2026-05-08 05:20 68.56698 -106.03508 36133 ft 507 kts 36°
2026-05-08 05:20 68.62583 -105.92857 36132 ft 507 kts 36°
2026-05-08 05:21 68.68471 -105.82133 36124 ft 507 kts 36°
2026-05-08 05:21 68.74333 -105.71388 36134 ft 507 kts 36°
2026-05-08 05:22 68.80186 -105.60587 36130 ft 506 kts 37°
2026-05-08 05:22 68.86012 -105.49767 36137 ft 508 kts 37°
2026-05-08 05:23 68.91888 -105.38785 36131 ft 509 kts 37°
2026-05-08 05:23 68.97745 -105.27767 36134 ft 509 kts 37°
2026-05-08 05:24 69.03614 -105.16656 36130 ft 509 kts 37°
2026-05-08 05:24 69.09410 -105.05581 36302 ft 505 kts 38°
2026-05-08 05:24 69.12103 -104.99382 36616 ft 498 kts 47°
2026-05-08 05:25 69.14582 -104.92627 36832 ft 496 kts 47°
2026-05-08 05:25 69.17011 -104.85764 37008 ft 495 kts 48°
2026-05-08 05:25 69.19410 -104.78835 37115 ft 495 kts 49°
2026-05-08 05:26 69.24166 -104.64879 37131 ft 499 kts 49°
2026-05-08 05:26 69.28980 -104.50655 37133 ft 503 kts 49°
2026-05-08 05:27 69.33821 -104.36303 37136 ft 504 kts 49°
2026-05-08 05:27 69.38637 -104.21948 37123 ft 502 kts 49°
2026-05-08 05:28 69.43422 -104.07585 37140 ft 500 kts 49°
2026-05-08 05:28 69.48160 -103.93256 37137 ft 500 kts 49°
2026-05-08 05:29 69.52922 -103.78754 37118 ft 500 kts 49°
2026-05-08 05:29 69.57673 -103.64188 37115 ft 500 kts 50°
2026-05-08 05:30 69.62370 -103.49684 37138 ft 500 kts 50°
2026-05-08 05:30 69.67080 -103.35044 37124 ft 497 kts 50°
2026-05-08 05:31 69.71755 -103.20406 37120 ft 496 kts 50°
2026-05-08 05:31 69.76426 -103.05671 37120 ft 500 kts 50°
2026-05-08 05:32 69.81107 -102.90804 37115 ft 500 kts 50°
2026-05-08 05:32 69.85747 -102.75964 37117 ft 500 kts 50°
2026-05-08 05:33 69.90403 -102.60968 37102 ft 500 kts 50°
2026-05-08 05:33 69.95037 -102.45940 37112 ft 496 kts 50°
2026-05-08 05:34 69.99627 -102.30941 37112 ft 496 kts 50°
2026-05-08 05:34 70.04176 -102.15965 37110 ft 495 kts 51°
2026-05-08 05:35 70.08741 -102.00833 37112 ft 495 kts 51°
2026-05-08 05:35 70.13286 -101.85658 37106 ft 495 kts 51°
2026-05-08 05:36 70.17831 -101.70371 37098 ft 497 kts 51°
2026-05-08 05:36 70.22365 -101.55012 37102 ft 496 kts 51°
2026-05-08 05:37 70.26846 -101.39723 37106 ft 495 kts 51°
2026-05-08 05:37 70.31337 -101.24286 37105 ft 495 kts 51°
2026-05-08 05:38 70.35822 -101.08756 37096 ft 495 kts 51°
2026-05-08 05:38 70.40284 -100.93193 37096 ft 495 kts 51°
2026-05-08 05:39 70.44710 -100.77642 37089 ft 495 kts 51°
2026-05-08 05:39 70.49133 -100.61984 37096 ft 492 kts 51°
2026-05-08 05:40 70.53525 -100.46323 37095 ft 491 kts 52°
2026-05-08 05:40 70.57898 -100.30610 37094 ft 491 kts 52°
2026-05-08 05:41 70.62266 -100.14800 37096 ft 493 kts 52°
2026-05-08 05:41 70.66619 -99.98921 37092 ft 495 kts 52°
2026-05-08 05:42 70.70992 -99.82855 37092 ft 495 kts 52°
2026-05-08 05:42 70.75353 -99.66714 37086 ft 495 kts 52°
2026-05-08 05:43 70.79697 -99.50508 37087 ft 495 kts 52°
2026-05-08 05:43 70.84026 -99.34235 37089 ft 495 kts 53°
2026-05-08 05:44 70.88313 -99.17995 37087 ft 495 kts 53°
2026-05-08 05:44 70.92611 -99.01588 37086 ft 495 kts 53°
2026-05-08 05:45 70.96893 -98.85116 37083 ft 494 kts 53°
2026-05-08 05:45 71.01149 -98.68612 37089 ft 492 kts 53°
2026-05-08 05:46 71.05353 -98.52190 37084 ft 491 kts 53°
2026-05-08 05:46 71.09564 -98.35615 37077 ft 491 kts 53°
2026-05-08 05:47 71.13759 -98.18967 37083 ft 491 kts 53°
2026-05-08 05:47 71.17938 -98.02253 37078 ft 491 kts 53°
2026-05-08 05:48 71.22080 -97.85560 37081 ft 491 kts 53°
2026-05-08 05:48 71.26222 -97.68738 37075 ft 489 kts 54°
2026-05-08 05:49 71.30333 -97.51906 37075 ft 488 kts 54°
2026-05-08 05:49 71.34424 -97.35013 37078 ft 488 kts 54°
2026-05-08 05:50 71.38505 -97.18033 37071 ft 488 kts 54°
2026-05-08 05:50 71.42542 -97.01108 37066 ft 488 kts 54°
2026-05-08 05:51 71.46594 -96.83981 37078 ft 490 kts 54°
2026-05-08 05:51 71.50642 -96.66732 37080 ft 489 kts 54°
2026-05-08 05:52 71.54670 -96.49432 37081 ft 489 kts 54°
2026-05-08 05:52 71.58646 -96.32209 37083 ft 489 kts 55°
2026-05-08 05:53 71.62641 -96.14767 37083 ft 489 kts 55°
2026-05-08 05:53 71.66614 -95.97279 37084 ft 489 kts 55°
2026-05-08 05:54 71.70574 -95.79704 37081 ft 489 kts 55°
2026-05-08 05:54 71.74484 -95.62210 37085 ft 487 kts 55°
2026-05-08 05:55 71.78386 -95.44605 37090 ft 486 kts 55°
2026-05-08 05:55 71.82273 -95.26922 37091 ft 486 kts 56°
2026-05-08 05:56 71.86143 -95.09170 37088 ft 487 kts 56°
2026-05-08 05:56 71.90028 -94.91201 37088 ft 490 kts 56°
2026-05-08 05:57 71.93873 -94.73263 37089 ft 490 kts 56°
2026-05-08 05:57 71.97723 -94.55151 37084 ft 489 kts 56°
2026-05-08 05:58 72.01544 -94.37021 37085 ft 488 kts 56°
2026-05-08 05:58 72.05344 -94.18837 37082 ft 488 kts 56°
2026-05-08 05:59 72.09105 -94.00683 37089 ft 487 kts 57°
2026-05-08 05:59 72.12872 -93.82345 37087 ft 488 kts 57°
2026-05-08 06:00 72.16619 -93.63948 37083 ft 488 kts 57°
2026-05-08 06:00 72.20327 -93.45580 37085 ft 486 kts 57°
2026-05-08 06:01 72.24025 -93.27107 37077 ft 486 kts 57°
2026-05-08 06:01 72.27732 -93.08420 37081 ft 490 kts 57°
2026-05-08 06:02 72.31430 -92.89620 37079 ft 490 kts 57°
2026-05-08 06:02 72.35112 -92.70731 37073 ft 490 kts 57°
2026-05-08 06:03 72.38755 -92.51874 37080 ft 490 kts 57°
2026-05-08 06:03 72.42398 -92.32842 37076 ft 490 kts 57°
2026-05-08 06:04 72.46018 -92.13761 37076 ft 488 kts 57°
2026-05-08 06:04 72.49612 -91.94652 37074 ft 488 kts 58°
2026-05-08 06:05 72.53185 -91.75474 37074 ft 488 kts 58°
2026-05-08 06:05 72.56742 -91.56208 37078 ft 488 kts 58°
2026-05-08 06:06 72.60255 -91.37010 37083 ft 488 kts 58°
2026-05-08 06:06 72.63788 -91.17517 37081 ft 492 kts 58°
2026-05-08 06:07 72.67317 -90.97870 37069 ft 490 kts 58°
2026-05-08 06:07 72.70782 -90.78393 37071 ft 489 kts 58°
2026-05-08 06:08 72.74252 -90.58705 37071 ft 489 kts 58°
2026-05-08 06:08 72.77703 -90.38944 37071 ft 489 kts 59°
2026-05-08 06:09 72.81133 -90.19109 37075 ft 489 kts 59°
2026-05-08 06:09 72.84539 -89.99228 37079 ft 489 kts 59°
2026-05-08 06:10 72.87905 -89.79390 37073 ft 487 kts 59°
2026-05-08 06:10 72.91261 -89.59421 37073 ft 487 kts 59°
2026-05-08 06:11 72.94597 -89.39377 37077 ft 487 kts 59°
2026-05-08 06:11 72.97918 -89.19232 37075 ft 489 kts 59°
2026-05-08 06:12 73.01234 -88.98921 37080 ft 490 kts 59°
2026-05-08 06:12 73.04509 -88.78657 37081 ft 490 kts 60°
2026-05-08 06:13 73.07790 -88.58154 37084 ft 490 kts 60°
2026-05-08 06:13 73.11046 -88.37603 37093 ft 490 kts 60°
2026-05-08 06:14 73.14287 -88.16939 37091 ft 490 kts 60°
2026-05-08 06:14 73.17482 -87.96360 37089 ft 490 kts 60°
2026-05-08 06:15 73.20679 -87.75562 37092 ft 490 kts 61°
2026-05-08 06:15 73.23854 -87.54692 37097 ft 490 kts 61°
2026-05-08 06:16 73.27011 -87.33724 37094 ft 489 kts 61°
2026-05-08 06:16 73.30134 -87.12763 37097 ft 489 kts 61°
2026-05-08 06:17 73.34782 -86.81167 37102 ft 492 kts 61°
2026-05-08 06:17 73.37870 -86.59889 37103 ft 492 kts 61°
2026-05-08 06:18 73.40943 -86.38495 37107 ft 492 kts 62°
2026-05-08 06:18 73.43991 -86.17039 37107 ft 492 kts 62°
2026-05-08 06:19 73.46994 -85.95676 37107 ft 490 kts 62°
2026-05-08 06:19 73.49979 -85.74203 37110 ft 489 kts 62°
2026-05-08 06:20 73.52942 -85.52658 37111 ft 489 kts 62°
2026-05-08 06:20 73.55389 -85.34691 37111 ft 489 kts 62°
2026-05-08 06:21 73.58783 -85.09487 37111 ft 489 kts 62°
2026-05-08 06:21 73.61687 -84.87663 37119 ft 492 kts 63°
2026-05-08 06:22 73.64095 -84.69385 37121 ft 493 kts 62°
2026-05-08 06:22 73.66971 -84.47304 37117 ft 492 kts 62°
2026-05-08 06:23 73.69826 -84.25163 37116 ft 492 kts 62°
2026-05-08 06:23 73.73109 -83.99361 37123 ft 493 kts 63°
2026-05-08 06:24 73.75443 -83.80793 37120 ft 493 kts 63°
2026-05-08 06:24 73.78223 -83.58444 37118 ft 492 kts 63°
2026-05-08 06:25 73.81431 -83.32349 37125 ft 492 kts 64°
2026-05-08 06:25 73.83708 -83.13582 37129 ft 489 kts 64°
2026-05-08 06:26 73.86389 -82.91263 37133 ft 489 kts 64°
2026-05-08 06:26 73.89058 -82.68766 37132 ft 490 kts 63°
2026-05-08 06:27 73.91721 -82.46063 37143 ft 495 kts 64°
2026-05-08 06:27 73.94384 -82.23075 37150 ft 496 kts 64°
2026-05-08 06:28 73.96996 -82.00211 37146 ft 496 kts 65°
2026-05-08 06:28 73.99600 -81.77159 37143 ft 493 kts 65°
2026-05-08 06:29 74.02169 -81.54130 37161 ft 492 kts 65°
2026-05-08 06:29 74.04710 -81.31057 37173 ft 492 kts 65°
2026-05-08 06:30 74.07214 -81.08033 37154 ft 492 kts 65°
2026-05-08 06:30 74.09704 -80.84827 37171 ft 493 kts 66°
2026-05-08 06:31 74.12177 -80.61475 37175 ft 493 kts 66°
2026-05-08 06:31 74.14620 -80.38106 37180 ft 492 kts 66°
2026-05-08 06:32 74.17039 -80.14648 37177 ft 493 kts 67°
2026-05-08 06:32 74.19439 -79.91076 37177 ft 494 kts 67°
2026-05-08 06:33 74.21801 -79.67553 37177 ft 494 kts 67°
2026-05-08 06:33 74.24152 -79.43803 37180 ft 494 kts 68°
2026-05-08 06:34 74.26480 -79.19971 37191 ft 495 kts 68°
2026-05-08 06:34 74.28764 -78.96253 37194 ft 494 kts 68°
2026-05-08 06:35 74.31030 -78.72378 37192 ft 493 kts 68°
2026-05-08 06:35 74.33271 -78.48433 37191 ft 493 kts 69°
2026-05-08 06:36 74.35486 -78.24424 37200 ft 493 kts 69°
2026-05-08 06:36 74.37675 -78.00350 37200 ft 493 kts 69°
2026-05-08 06:37 74.39835 -77.76235 37202 ft 493 kts 69°
2026-05-08 06:37 74.41958 -77.52173 37204 ft 493 kts 70°
2026-05-08 06:38 74.44062 -77.27961 37207 ft 492 kts 70°
2026-05-08 06:38 74.46141 -77.03680 37208 ft 491 kts 70°
2026-05-08 06:39 74.48191 -76.79356 37206 ft 491 kts 70°
2026-05-08 06:39 74.50202 -76.55128 37202 ft 491 kts 71°
2026-05-08 06:40 74.52200 -76.30665 37203 ft 491 kts 71°
2026-05-08 06:40 74.54171 -76.06147 37203 ft 492 kts 71°
2026-05-08 06:41 74.56114 -75.81579 37206 ft 491 kts 71°
2026-05-08 06:41 74.58026 -75.56992 37205 ft 491 kts 72°
2026-05-08 06:42 74.59900 -75.32501 37208 ft 492 kts 72°
2026-05-08 06:42 74.61768 -75.07677 37208 ft 493 kts 72°
2026-05-08 06:43 74.63610 -74.82775 37208 ft 494 kts 72°
2026-05-08 06:43 74.65426 -74.57776 37209 ft 494 kts 72°
2026-05-08 06:44 74.67202 -74.32898 37207 ft 494 kts 73°
2026-05-08 06:44 74.68962 -74.07789 37208 ft 494 kts 73°
2026-05-08 06:45 74.70695 -73.82615 37206 ft 494 kts 73°
2026-05-08 06:45 74.72399 -73.57394 37202 ft 494 kts 73°
2026-05-08 06:46 74.74064 -73.32287 37203 ft 494 kts 74°
2026-05-08 06:46 74.75712 -73.06954 37208 ft 494 kts 74°
2026-05-08 06:47 74.77332 -72.81567 37206 ft 494 kts 74°
2026-05-08 06:47 74.78925 -72.56112 37206 ft 495 kts 74°
2026-05-08 06:48 74.80482 -72.30675 37205 ft 496 kts 75°
2026-05-08 06:48 74.82012 -72.05030 37205 ft 496 kts 75°
2026-05-08 06:49 74.83515 -71.79306 37205 ft 496 kts 75°
2026-05-08 06:49 74.84991 -71.53531 37197 ft 496 kts 75°
2026-05-08 06:50 74.86437 -71.27708 37209 ft 497 kts 75°
2026-05-08 06:50 74.87843 -71.02061 37200 ft 496 kts 76°
2026-05-08 06:51 74.89229 -70.76173 37200 ft 495 kts 76°
2026-05-08 06:51 74.90584 -70.50288 37200 ft 496 kts 76°
2026-05-08 06:52 74.91911 -70.24323 37200 ft 496 kts 76°
2026-05-08 06:52 74.93201 -69.98467 37196 ft 497 kts 77°
2026-05-08 06:53 74.94474 -69.72317 37195 ft 498 kts 77°
2026-05-08 06:53 74.95718 -69.46084 37192 ft 499 kts 77°
2026-05-08 06:54 74.96933 -69.19788 37192 ft 499 kts 77°
2026-05-08 06:54 74.98110 -68.93623 37189 ft 499 kts 77°
2026-05-08 06:55 74.99265 -68.67226 37188 ft 499 kts 78°
2026-05-08 06:55 75.00390 -68.40809 37188 ft 499 kts 78°
2026-05-08 06:56 75.01486 -68.14308 37188 ft 499 kts 78°
2026-05-08 06:56 75.02541 -67.88011 37187 ft 499 kts 78°
2026-05-08 06:57 75.03575 -67.61457 37184 ft 499 kts 79°
2026-05-08 06:57 75.04576 -67.34918 37197 ft 499 kts 79°
2026-05-08 06:58 75.05550 -67.08265 37183 ft 501 kts 79°
2026-05-08 06:58 75.06491 -66.81625 37183 ft 502 kts 79°
2026-05-08 06:59 75.07407 -66.54773 37189 ft 502 kts 79°
2026-05-08 06:59 75.08289 -66.27939 37179 ft 502 kts 80°
2026-05-08 07:00 75.09142 -66.01045 37193 ft 502 kts 80°
2026-05-08 07:00 75.09963 -65.74113 37192 ft 502 kts 80°
2026-05-08 07:01 75.10747 -65.47372 37180 ft 502 kts 81°
2026-05-08 07:01 75.11506 -65.20372 37180 ft 502 kts 81°
2026-05-08 07:02 75.12232 -64.93386 37199 ft 502 kts 81°
2026-05-08 07:02 75.12928 -64.66336 37208 ft 502 kts 81°